Location: Moscow
(55.7500°N, 37.5830°E)
Time: 10:02:05
(UTC+03:00)

Transit 4A - Pass Details

Date: 05 December 2021
Orbit: 863 x 981 km, 66.8° (Epoch: 23 January)

Event Time Altitude Azimuth Distance (km) Brightness Sun altitude
Rises 18:04:30 0° 156° (SSE) 3,464 10.8 -16.2°
Reaches altitude 10° 18:08:08 10° 134° (SE) 2,551 9.9 -16.7°
Enters shadow 18:09:18 13° 123° (ESE) 2,373 9.6 -16.9°
